Date String (YYYY-MM-DD hh:mm:ss) UTC,Instrument flags,absolute air pressure of the measurement (hPa),sample flow rate (lpm),inlet stack bypass flow (lpm),air temperature of the measurement (°C),ambient temperature measured by the external sensor (°C),aerosol sample conditioner tube jacket temperature (°C),OPC LED temperature (°C),internal box temperature (°C),relative humidity of the measurement (%),span deviation,mass concentration of particles derived from Lorenz-Mie calculation of OPC scattering (μg/m³),mass concentration of particles derived from Lorenz-Mie calculation of OPC scattering (μg/m³),mass concentration of particles derived from Lorenz-Mie calculation of OPC scattering (μg/m³)
DateTimeUTC,F1_M11,P_M11,Q1_M11,Q2_M11,T1_M11,T2_M11,T3_M11,T4_M11,T5_M11,U1_M11,ZSPAN_M11,X0_M11,X2_M11,X1_M11
2023-07-03 20:00:00,SystemResetWarning,0831.1,5.00,000.00,028.4,026.1,000.0,036.7,030.0,18.9,0000.0,0011.28,0004.39,0003.91
2023-07-03 20:01:00,SystemResetWarning,0831.1,4.99,000.00,028.4,026.5,000.0,036.8,030.1,19.3,0000.0,0010.69,0004.44,0003.93
2023-07-03 20:02:00,SystemResetWarning,0831.1,5.00,000.00,028.5,026.8,000.0,036.8,030.2,19.8,0000.0,0011.07,0004.53,0003.94
2023-07-03 20:03:00,SystemResetWarning,0831.2,5.00,000.00,028.5,027.1,000.0,036.8,030.2,19.2,0000.0,0011.25,0004.54,0003.95
2023-07-03 20:04:00,SystemResetWarning,0831.1,5.00,000.00,028.6,027.4,000.0,036.8,030.3,18.2,0000.0,0011.16,0004.54,0003.97
2023-07-03 20:05:00,SystemResetWarning,0831.1,5.00,000.00,028.6,027.1,000.0,036.8,030.4,18.3,0000.0,0010.68,0004.56,0003.98
2023-07-03 20:06:00,SystemResetWarning,0830.9,4.98,000.00,028.6,025.3,000.0,036.7,030.1,19.2,0000.0,0009.54,0004.57,0003.99
2023-07-03 20:07:00,SystemResetWarning,0830.9,5.01,000.00,028.5,024.6,000.0,036.7,030.0,20.9,0000.0,0009.56,0004.56,0004.00
2023-07-03 20:08:00,SystemResetWarning,0830.9,5.01,000.00,028.4,025.0,000.0,036.7,029.9,18.6,0000.0,0009.57,0004.55,0004.00
2023-07-03 20:09:00,SystemResetWarning,0830.9,5.00,000.00,028.4,025.4,000.0,036.7,029.8,19.5,0000.0,0009.56,0004.55,0004.01
2023-07-03 20:10:00,SystemResetWarning,0830.9,5.00,000.00,028.4,025.9,000.0,036.8,029.9,20.7,0000.0,0009.15,0004.55,0004.01
2023-07-03 20:11:00,SystemResetWarning,0830.9,5.00,000.00,028.4,026.3,000.0,036.8,030.0,21.1,0000.0,0008.86,0004.56,0004.01
2023-07-03 20:12:00,SystemResetWarning,0830.9,5.00,000.00,028.5,026.7,000.0,036.8,030.1,21.2,0000.0,0008.81,0004.57,0004.02
2023-07-03 20:13:00,SystemResetWarning,0830.9,5.00,000.00,028.5,027.0,000.0,036.8,030.2,21.5,0000.0,0008.09,0004.49,0004.02
2023-07-03 20:14:00,SystemResetWarning,0830.9,4.99,000.00,028.6,027.3,000.0,036.9,030.3,20.5,0000.0,0007.99,0004.49,0004.02
2023-07-03 20:15:00,SystemResetWarning,0830.9,5.01,000.00,028.6,027.5,000.0,036.9,030.4,19.4,0000.0,0008.21,0004.52,0004.02
2023-07-03 20:16:00,SystemResetWarning,0830.9,4.99,000.00,028.7,026.6,000.0,036.8,030.3,18.4,0000.0,0008.32,0004.55,0004.02
2023-07-03 20:17:00,SystemResetWarning,0830.8,5.01,000.00,028.6,024.9,000.0,036.8,030.1,18.6,0000.0,0008.37,0004.56,0004.02
2023-07-03 20:18:00,SystemResetWarning,0830.8,5.01,000.00,028.6,024.8,000.0,036.7,030.1,20.0,0000.0,0008.12,0004.57,0004.01
2023-07-03 20:19:00,SystemResetWarning,0830.8,4.99,000.00,028.5,025.2,000.0,036.7,029.9,20.0,0000.0,0008.09,0004.56,0004.00
2023-07-03 20:20:00,SystemResetWarning,0830.8,5.00,000.00,028.5,025.6,000.0,036.8,029.9,19.1,0000.0,0007.97,0004.53,0004.00
2023-07-03 20:21:00,SystemResetWarning,0830.8,5.01,000.00,028.5,026.0,000.0,036.8,030.0,18.7,0000.0,0008.81,0004.55,0004.02
2023-07-03 20:22:00,SystemResetWarning,0830.8,5.00,000.00,028.5,026.4,000.0,036.8,030.1,19.2,0000.0,0009.07,0004.57,0004.02
2023-07-03 20:23:00,SystemResetWarning,0830.8,5.00,000.00,028.5,026.8,000.0,036.8,030.2,19.3,0000.0,0009.54,0004.58,0004.03
2023-07-03 20:24:00,SystemResetWarning,0830.8,4.99,000.00,028.6,027.1,000.0,036.9,030.3,19.1,0000.0,0009.91,0004.61,0004.04
2023-07-03 20:25:00,SystemResetWarning,0830.8,4.99,000.00,028.6,027.2,000.0,036.9,030.4,19.1,0000.0,0011.12,0004.59,0004.04
2023-07-03 20:26:00,SystemResetWarning,0830.7,4.99,000.00,028.6,025.7,000.0,036.8,030.2,19.2,0000.0,0011.18,0004.58,0004.06
2023-07-03 20:27:00,SystemResetWarning,0830.7,5.01,000.00,028.6,024.5,000.0,036.7,030.0,19.8,0000.0,0011.36,0004.58,0004.07
2023-07-03 20:28:00,SystemResetWarning,0830.7,5.01,000.00,028.5,024.8,000.0,036.7,029.9,19.5,0000.0,0011.32,0004.56,0004.08
2023-07-03 20:29:00,SystemResetWarning,0830.7,5.00,000.00,028.4,025.2,000.0,036.7,029.8,20.0,0000.0,0011.36,0004.57,0004.09
2023-07-03 20:30:00,SystemResetWarning,0830.7,5.01,000.00,028.4,025.6,000.0,036.8,029.9,18.6,0000.0,0011.60,0004.61,0004.12
2023-07-03 20:31:00,SystemResetWarning,0830.6,4.99,000.00,028.4,026.1,000.0,036.8,030.0,20.0,0000.0,0011.74,0004.66,0004.12
2023-07-03 20:32:00,SystemResetWarning,0830.7,5.00,000.00,028.5,026.5,000.0,036.8,030.1,20.9,0000.0,0011.04,0004.68,0004.13
2023-07-03 20:33:00,SystemResetWarning,0830.7,5.00,000.00,028.5,026.9,000.0,036.8,030.2,19.4,0000.0,0010.77,0004.64,0004.13
2023-07-03 20:34:00,SystemResetWarning,0830.7,5.01,000.00,028.6,027.2,000.0,036.9,030.3,19.2,0000.0,0010.33,0004.63,0004.14
2023-07-03 20:35:00,SystemResetWarning,0830.6,4.98,000.00,028.6,026.7,000.0,036.8,030.3,19.8,0000.0,0009.95,0004.63,0004.14
2023-07-03 20:36:00,SystemResetWarning,0830.7,4.99,000.00,028.6,025.0,000.0,036.7,030.0,21.0,0000.0,0009.61,0004.65,0004.15
2023-07-03 20:37:00,SystemResetWarning,0830.6,5.01,000.00,028.5,024.6,000.0,036.7,030.0,21.2,0000.0,0009.41,0004.65,0004.15
2023-07-03 20:38:00,SystemResetWarning,0830.6,5.00,000.00,028.4,025.1,000.0,036.7,029.9,20.6,0000.0,0009.40,0004.65,0004.16
2023-07-03 20:39:00,SystemResetWarning,0830.6,4.99,000.00,028.4,025.4,000.0,036.7,029.8,18.9,0000.0,0009.55,0004.64,0004.16
2023-07-03 20:40:00,SystemResetWarning,0830.6,5.00,000.00,028.4,025.9,000.0,036.8,029.9,19.4,0000.0,0009.70,0004.66,0004.16
2023-07-03 20:41:00,SystemResetWarning,0830.5,5.00,000.00,028.4,026.3,000.0,036.8,030.1,18.6,0000.0,0009.57,0004.63,0004.15
2023-07-03 20:42:00,SystemResetWarning,0830.5,5.00,000.00,028.5,026.7,000.0,036.8,030.2,20.6,0000.0,0009.68,0004.60,0004.15
2023-07-03 20:43:00,SystemResetWarning,0830.5,4.99,000.00,028.5,027.0,000.0,036.8,030.2,19.9,0000.0,0009.73,0004.58,0004.15
2023-07-03 20:44:00,SystemResetWarning,0830.6,5.00,000.00,028.6,027.3,000.0,036.9,030.3,19.8,0000.0,0009.91,0004.58,0004.15
2023-07-03 20:45:00,SystemResetWarning,0830.6,4.99,000.00,028.6,027.0,000.0,036.8,030.3,18.4,0000.0,0009.89,0004.56,0004.15
2023-07-03 20:46:00,SystemResetWarning,0830.5,5.00,000.00,028.6,025.3,000.0,036.8,030.1,19.2,0000.0,0009.77,0004.51,0004.15
2023-07-03 20:47:00,SystemResetWarning,0830.5,5.01,000.00,028.5,024.7,000.0,036.7,030.0,19.8,0000.0,0009.19,0004.52,0004.14
2023-07-03 20:48:00,SystemResetWarning,0830.4,5.01,000.00,028.5,025.0,000.0,036.7,029.9,20.2,0000.0,0008.76,0004.51,0004.15
2023-07-03 20:49:00,SystemResetWarning,0830.5,4.99,000.00,028.4,025.4,000.0,036.7,029.9,21.3,0000.0,0008.63,0004.49,0004.14
2023-07-03 20:50:00,SystemResetWarning,0830.4,5.00,000.00,028.4,025.9,000.0,036.8,030.0,19.3,0000.0,0008.41,0004.50,0004.14
2023-07-03 20:51:00,SystemResetWarning,0830.5,5.00,000.00,028.4,026.3,000.0,036.8,030.1,18.4,0000.0,0008.11,0004.48,0004.14
2023-07-03 20:52:00,SystemResetWarning,0830.6,4.99,000.00,028.5,026.7,000.0,036.8,030.2,19.4,0000.0,0008.36,0004.48,0004.13
2023-07-03 20:53:00,SystemResetWarning,0830.6,5.00,000.00,028.5,027.0,000.0,036.8,030.2,18.6,0000.0,0009.72,0004.53,0004.13
2023-07-03 20:54:00,SystemResetWarning,0830.4,5.01,000.00,028.6,027.3,000.0,036.9,030.3,19.3,0000.0,0009.89,0004.53,0004.12
2023-07-03 20:55:00,SystemResetWarning,0830.4,4.99,000.00,028.6,027.2,000.0,036.9,030.4,20.3,0000.0,0010.22,0004.54,0004.12
2023-07-03 20:56:00,SystemResetWarning,0830.4,4.99,000.00,028.6,025.6,000.0,036.8,030.1,20.0,0000.0,0010.68,0004.56,0004.12
2023-07-03 20:57:00,SystemResetWarning,0830.4,5.00,000.00,028.5,024.7,000.0,036.7,030.0,18.6,0000.0,0010.66,0004.57,0004.12
2023-07-03 20:58:00,SystemResetWarning,0830.5,5.01,000.00,028.5,025.0,000.0,036.7,029.9,18.7,0000.0,0010.85,0004.56,0004.11
2023-07-03 20:59:00,SystemResetWarning,0830.5,5.01,000.00,028.4,025.4,000.0,036.7,029.9,19.9,0000.0,0011.10,0004.56,0004.11
